Location: Keppel Henge
(44.7900°N, 80.9447°W)
Time: 19:16:28
(UTC-04:00)

Tiangong 1 - Pass Details

Date: 08 October 2017
Orbit: 293 x 320 km, 42.8° (Epoch: 20 October)

Event Time Altitude Azimuth Distance (km) Brightness Sun altitude
Rises 20:31:32 0° 261° (W) 2,034 6.1 -18.6°
Reaches altitude 10° 20:33:33 10° 256° (WSW) 1,199 4.5 -19.0°
Enters shadow 20:35:31 39° 230° (SW) 478 1.8 -19.3°
